SCP
0 0 0 0 0 0 0 0 0 0 0 0 0 0 0 0 0 0 0 0 0 0 0 0 0 0 0 0 0 0 0 0
0 0 0 0 0 0 0 0 0 0 0 0 0 0 0 0 0 0 0 0 0 0 0 0 0 0 0 0 0 0 0 0
0 0 0 0 0 0 0 0 0 0 0 0 0 0 0 0 0 0 0 0 0 0 0 0 0 0 0 0 0 0 0 0
0 0 0 0 0 0 0 0 0 0 0 0 0 0 0 0 0 0 0 0 0 0 0 0 0 0 0 0 0 0 0 0
0 0 0 0 0 0 0 0 0 0 0 0 0 0 0 0 0 0 0 0 0 0 0 0 0 0 0 0 0 0 0 0
0 0 0 0 0 0 0 0 0 0 0 0 0 0 0 0 0 0 0 0 0 0 0 0 0 0 0 0 0 0 0 0
0 0 0 0 0 0 0 0 0 0 0 0 0 0 0 0 0 0 0 0 0 0 0 0 0 0 0 0 0 0 0 0
0 0 0 0 0 0 0 0 0 0 0 0 0 0 0 0 0 0 0 0 0 0 0 0 0 0 0 0 0 0 0 0
0 0 0 0 0 0 0 0 0 0 0 0 0 0 0 0 0 0 0 0 0 0 0 0 0 0 0 0 0 0 0 0
0 0 0 0 0 0 0 0 0 0 0 0 0 0 0 0 0 0 0 0 0 0 0 0 0 0 0 0 0 0 0 0
0 0 0 0 0 0 0 0 0 0 0 0 0 0 0 0 0 0 0 0 0 0 0 0 0 0 0 0 0 0 0 0
0 0 0 0 0 0 0 0 0 0 0 0 0 0 0 0 0 0 0 0 0 0 0 0 0 0 0 0 0 0 0 0
0 0 0 0 0 0 0 0 0 0 0 0 0 0 0 0 0 0 0 0 0 0 0 0 0 0 0 0 0 0 0 0
0 0 0 0 0 0 0 0 0 0 0 0 0 0 0 0 0 0 0 0 0 0 0 0 0 0 0 0 0 0 0 0
0 0 0 0 0 0 0 0 0 0 0 0 0 0 0 0 0 0 0 0 0 0 0 0 0 0 0 0 0 0 0 0
0 0 0 0 0 0 0 0 0 0 0 0 0 0 0 0 0 0 0 0 0 0 0 0 0 0 0 0 0 0 0 0
0 0 0 0 0 0 0 0 0 0 0 0 0 0 0 0 0 0 0 0 0 0 0 0 0 0 0 0 0 0 0 0
0 0 0 0 0 0 0 0 0 0 0 0 0 0 0 0 0 0 0 0 0 0 0 0 0 0 0 0 0 0 0 0
0 0 0 0 0 0 0 0 0 0 0 0 0 0 0 0 0 0 0 0 0 0 0 0 0 0 0 0 0 0 0 0
0 0 0 0 0 0 0 0 0 0 0 0 0 0 0 0 0 0 0 0 0 0 0 0 0 0 0 0 0 0 0 0
Wind_Speed_500mb
34 31 30 29 27 25 23 23 24 26 28 32 35 39 45 31 27 29 28 30 31 32 30 29 29 28 28 29 29 30 30 31
33 31 31 30 28 26 24 23 24 27 29 32 34 38 48 34 27 25 25 25 25 24 22 24 24 23 22 21 22 22 23 26
36 34 32 29 26 26 27 27 25 24 25 30 36 41 42 30 28 26 24 24 23 21 18 17 15 14 14 16 18 20 22 26
40 37 33 32 32 30 29 28 28 27 26 27 29 30 33 31 29 28 27 25 21 18 15 13 11 12 14 15 18 22 27 31
42 39 37 36 35 35 34 32 32 29 28 28 30 31 32 32 30 27 25 21 18 14 11 10 11 12 15 19 23 28 32 35
48 46 44 43 40 38 37 37 34 33 34 36 35 35 34 32 29 26 22 17 14 11 11 11 13 16 21 25 30 33 35 39
52 52 51 49 47 45 42 40 38 39 38 38 37 38 34 31 28 23 20 17 12 9 10 15 19 25 30 34 37 41 45 46
57 56 54 52 50 48 45 44 43 42 41 40 39 36 33 30 27 22 16 10 9 11 15 21 26 29 33 35 39 42 46 50
57 58 57 54 51 48 48 48 48 46 43 42 39 35 32 28 22 16 13 10 11 15 20 25 29 32 36 40 44 45 47 49
56 60 60 58 55 54 53 52 50 47 46 43 39 34 29 23 17 13 11 11 14 19 25 29 32 35 39 44 46 48 48 48
50 57 61 60 58 58 58 55 53 50 47 43 38 31 24 19 14 11 12 16 23 29 29 30 34 36 37 38 40 41 44 47
43 52 62 60 59 58 56 55 52 50 45 39 33 26 21 16 13 12 18 27 28 27 27 27 27 27 28 31 36 42 47 50
42 50 58 59 57 57 57 56 52 47 41 34 27 22 18 12 17 25 29 25 24 23 22 20 22 25 28 32 36 40 46 49
37 48 55 55 54 57 59 57 52 45 37 32 26 18 18 21 28 26 26 25 25 23 20 19 22 25 29 33 37 40 44 48
40 50 55 57 58 55 56 53 47 40 34 29 22 22 25 28 28 26 25 26 27 26 26 25 24 27 30 35 39 43 47 52
45 52 55 57 59 58 55 51 44 38 31 26 29 34 35 32 27 26 27 27 28 30 30 33 35 36 40 45 46 49 50 55
47 50 53 59 64 60 53 46 41 37 33 39 41 38 34 29 27 26 26 27 29 31 33 37 42 44 46 46 50 50 51 54
52 54 59 65 64 57 53 47 43 44 43 43 41 38 34 29 27 26 26 28 30 32 35 42 45 47 48 50 54 52 55 55
52 58 62 67 63 57 52 49 46 47 47 45 42 39 37 33 31 31 30 29 27 30 34 40 43 46 50 54 54 52 51 52
56 63 69 67 59 53 51 48 49 49 48 47 45 42 39 36 34 36 35 34 33 32 35 40 45 45 49 54 57 56 52 50
Wind_Direction_500mb
198 198 196 194 194 196 196 202 202 202 206 215 216 215 213 209 218 225 228 229 230 236 252 250 248 247 256 258 264 269 275 282
195 192 195 194 195 195 192 196 198 199 200 204 204 207 207 204 206 209 215 220 225 226 227 233 236 238 244 255 266 275 283 288
197 197 197 198 197 195 194 190 192 189 191 193 197 202 213 195 193 193 197 205 204 201 204 211 222 236 251 265 275 283 292 299
199 200 202 201 201 199 196 190 190 187 184 186 180 180 179 181 185 184 184 183 185 187 194 206 223 249 267 281 294 300 302 306
203 204 204 205 205 201 196 191 190 181 182 182 176 174 175 171 175 176 175 179 183 188 206 232 254 273 289 298 305 310 309 309
208 206 204 204 202 199 197 191 185 183 183 181 176 175 176 174 174 177 178 184 191 205 227 256 280 293 302 309 310 310 310 311
212 210 208 206 204 200 198 192 188 189 187 184 181 179 176 176 178 180 185 193 204 232 272 290 302 312 314 314 315 315 313 313
217 214 211 210 208 202 198 195 192 193 189 187 184 181 178 179 181 185 194 211 243 276 300 310 314 314 312 312 311 312 315 317
225 219 213 210 206 204 200 197 195 193 192 188 184 185 185 185 189 198 215 242 274 297 306 311 310 310 309 310 312 315 317 318
233 224 216 211 208 203 200 199 197 196 194 191 189 190 191 194 199 215 242 278 299 310 307 304 308 311 313 317 319 319 319 320
239 225 216 212 209 206 204 201 199 195 193 191 190 191 196 203 212 239 272 294 304 298 302 305 309 313 315 319 320 320 324 327
228 222 216 211 208 206 204 201 197 194 193 192 193 199 205 214 243 270 298 295 286 292 300 305 308 311 315 320 325 327 328 327
221 215 209 209 208 205 202 198 195 193 193 196 201 208 211 238 278 280 272 280 288 292 294 299 308 315 319 323 323 322 320 320
216 207 204 205 207 204 199 195 192 194 198 204 206 214 254 274 264 264 272 279 281 282 287 297 303 306 310 311 313 313 316 319
207 205 204 203 201 200 197 193 195 202 205 205 225 252 251 245 252 262 274 280 284 290 297 303 308 306 304 306 313 320 321 320
212 209 205 200 194 190 195 199 202 201 208 234 241 236 237 239 250 264 270 277 286 293 301 309 311 311 314 319 322 322 321 317
214 211 207 200 194 194 199 204 205 230 234 232 232 234 236 244 254 261 273 286 291 296 305 309 308 313 318 316 318 322 320 319
215 207 205 198 195 199 202 216 226 230 228 230 234 236 239 249 263 270 273 278 284 295 302 304 310 314 316 314 317 317 316 315
214 207 203 202 205 209 219 221 225 229 232 235 237 240 246 253 259 264 270 276 287 296 301 304 309 312 312 312 314 313 311 311
214 211 210 212 216 224 221 226 229 234 238 240 241 243 250 257 265 268 273 279 287 293 298 303 305 307 310 311 311 311 312 312
Wind_Speed_850mb
34 31 30 29 27 25 23 23 24 26 28 32 35 39 45 31 27 29 28 30 31 32 30 29 29 28 28 29 29 30 30 31
33 31 31 30 28 26 24 23 24 27 29 32 34 38 48 34 27 25 25 25 25 24 22 24 24 23 22 21 22 22 23 26
36 34 32 29 26 26 27 27 25 24 25 30 36 41 42 30 28 26 24 24 23 21 18 17 15 14 14 16 18 20 22 26
40 37 33 32 32 30 29 28 28 27 26 27 29 30 33 31 29 28 27 25 21 18 15 13 11 12 14 15 18 22 27 31
42 39 37 36 35 35 34 32 32 29 28 28 30 31 32 32 30 27 25 21 18 14 11 10 11 12 15 19 23 28 32 35
48 46 44 43 40 38 37 37 34 33 34 36 35 35 34 32 29 26 22 17 14 11 11 11 13 16 21 25 30 33 35 39
52 52 51 49 47 45 42 40 38 39 38 38 37 38 34 31 28 23 20 17 12 9 10 15 19 25 30 34 37 41 45 46
57 56 54 52 50 48 45 44 43 42 41 40 39 36 33 30 27 22 16 10 9 11 15 21 26 29 33 35 39 42 46 50
57 58 57 54 51 48 48 48 48 46 43 42 39 35 32 28 22 16 13 10 11 15 20 25 29 32 36 40 44 45 47 49
56 60 60 58 55 54 53 52 50 47 46 43 39 34 29 23 17 13 11 11 14 19 25 29 32 35 39 44 46 48 48 48
50 57 61 60 58 58 58 55 53 50 47 43 38 31 24 19 14 11 12 16 23 29 29 30 34 36 37 38 40 41 44 47
43 52 62 60 59 58 56 55 52 50 45 39 33 26 21 16 13 12 18 27 28 27 27 27 27 27 28 31 36 42 47 50
42 50 58 59 57 57 57 56 52 47 41 34 27 22 18 12 17 25 29 25 24 23 22 20 22 25 28 32 36 40 46 49
37 48 55 55 54 57 59 57 52 45 37 32 26 18 18 21 28 26 26 25 25 23 20 19 22 25 29 33 37 40 44 48
40 50 55 57 58 55 56 53 47 40 34 29 22 22 25 28 28 26 25 26 27 26 26 25 24 27 30 35 39 43 47 52
45 52 55 57 59 58 55 51 44 38 31 26 29 34 35 32 27 26 27 27 28 30 30 33 35 36 40 45 46 49 50 55
47 50 53 59 64 60 53 46 41 37 33 39 41 38 34 29 27 26 26 27 29 31 33 37 42 44 46 46 50 50 51 54
52 54 59 65 64 57 53 47 43 44 43 43 41 38 34 29 27 26 26 28 30 32 35 42 45 47 48 50 54 52 55 55
52 58 62 67 63 57 52 49 46 47 47 45 42 39 37 33 31 31 30 29 27 30 34 40 43 46 50 54 54 52 51 52
56 63 69 67 59 53 51 48 49 49 48 47 45 42 39 36 34 36 35 34 33 32 35 40 45 45 49 54 57 56 52 50
Wind_Direction_850mb
198 198 196 194 194 196 196 202 202 202 206 215 216 215 213 209 218 225 228 229 230 236 252 250 248 247 256 258 264 269 275 282
195 192 195 194 195 195 192 196 198 199 200 204 204 207 207 204 206 209 215 220 225 226 227 233 236 238 244 255 266 275 283 288
197 197 197 198 197 195 194 190 192 189 191 193 197 202 213 195 193 193 197 205 204 201 204 211 222 236 251 265 275 283 292 299
199 200 202 201 201 199 196 190 190 187 184 186 180 180 179 181 185 184 184 183 185 187 194 206 223 249 267 281 294 300 302 306
203 204 204 205 205 201 196 191 190 181 182 182 176 174 175 171 175 176 175 179 183 188 206 232 254 273 289 298 305 310 309 309
208 206 204 204 202 199 197 191 185 183 183 181 176 175 176 174 174 177 178 184 191 205 227 256 280 293 302 309 310 310 310 311
212 210 208 206 204 200 198 192 188 189 187 184 181 179 176 176 178 180 185 193 204 232 272 290 302 312 314 314 315 315 313 313
217 214 211 210 208 202 198 195 192 193 189 187 184 181 178 179 181 185 194 211 243 276 300 310 314 314 312 312 311 312 315 317
225 219 213 210 206 204 200 197 195 193 192 188 184 185 185 185 189 198 215 242 274 297 306 311 310 310 309 310 312 315 317 318
233 224 216 211 208 203 200 199 197 196 194 191 189 190 191 194 199 215 242 278 299 310 307 304 308 311 313 317 319 319 319 320
239 225 216 212 209 206 204 201 199 195 193 191 190 191 196 203 212 239 272 294 304 298 302 305 309 313 315 319 320 320 324 327
228 222 216 211 208 206 204 201 197 194 193 192 193 199 205 214 243 270 298 295 286 292 300 305 308 311 315 320 325 327 328 327
221 215 209 209 208 205 202 198 195 193 193 196 201 208 211 238 278 280 272 280 288 292 294 299 308 315 319 323 323 322 320 320
216 207 204 205 207 204 199 195 192 194 198 204 206 214 254 274 264 264 272 279 281 282 287 297 303 306 310 311 313 313 316 319
207 205 204 203 201 200 197 193 195 202 205 205 225 252 251 245 252 262 274 280 284 290 297 303 308 306 304 306 313 320 321 320
212 209 205 200 194 190 195 199 202 201 208 234 241 236 237 239 250 264 270 277 286 293 301 309 311 311 314 319 322 322 321 317
214 211 207 200 194 194 199 204 205 230 234 232 232 234 236 244 254 261 273 286 291 296 305 309 308 313 318 316 318 322 320 319
215 207 205 198 195 199 202 216 226 230 228 230 234 236 239 249 263 270 273 278 284 295 302 304 310 314 316 314 317 317 316 315
214 207 203 202 205 209 219 221 225 229 232 235 237 240 246 253 259 264 270 276 287 296 301 304 309 312 312 312 314 313 311 311
214 211 210 212 216 224 221 226 229 234 238 240 241 243 250 257 265 268 273 279 287 293 298 303 305 307 310 311 311 311 312 312